DW9688 Weather Reports


time (UTC)temp
F
wind
direction
speed
knots
gust
knots
rain 1hr
in
rain 24hr
in
rain mn
in
humidity
%
barometer
mb
20260505193629 53 121 10.4 13.0 0.00 0.13 0.13 86 1006.8
20260505193130 53 128 10.4 13.0 0.00 0.13 0.13 87 1006.9
20260505192629 53 127 11.3 13.0 0.00 0.13 0.13 86 1007.0
20260505192129 53 130 11.3 14.8 0.00 0.13 0.13 86 1006.8
20260505191629 53 138 13.0 16.5 0.00 0.13 0.13 87 1006.8
20260505191130 53 133 13.9 17.4 0.00 0.13 0.13 87 1006.8
20260505190628 53 132 13.9 18.2 0.00 0.13 0.13 88 1006.9
20260505190129 53 114 14.8 18.2 0.00 0.13 0.13 87 1006.8
20260505185629 53 111 14.8 18.2 0.00 0.13 0.13 85 1006.8
20260505185146 53 112 14.8 18.2 0.00 0.13 0.13 85 1007.0
20260505184129 53 118 12.2 18.2 0.00 0.13 0.13 82 1006.9
20260505183628 53 149 10.4 14.8 0.00 0.13 0.13 81 1006.9
20260505183131 53 155 10.4 15.6 0.00 0.13 0.13 81 1006.9
20260505182631 54 139 8.7 15.6 0.00 0.13 0.13 82 1007.0
20260505182130 54 118 6.1 10.4 0.00 0.13 0.13 82 1006.9
20260505181630 54 97 5.2 6.1 0.00 0.13 0.13 83 1006.8
20260505181143 54 110 5.2 6.1 0.00 0.13 0.13 82 1006.8
20260505180604 54 109 6.1 9.6 0.00 0.13 0.13 81 1006.7
20260505180104 54 134 8.7 10.4 0.00 0.13 0.13 81 1006.8
20260505175603 54 136 8.7 10.4 0.00 0.13 0.13 81 1006.7
20260505175102 54 132 7.8 10.4 0.00 0.13 0.13 81 1006.7
20260505174602 54 122 7.0 8.7 0.00 0.13 0.13 82 1006.7
20260505174102 54 127 7.0 9.6 0.00 0.13 0.13 82 1006.7
20260505173101 54 120 10.4 13.0 0.00 0.13 0.13 85 1006.7
20260505172601 54 111 12.2 13.9 0.00 0.13 0.13 85 1006.8
20260505172103 54 105 13.0 15.6 0.00 0.13 0.13 86 1006.7
20260505171601 54 109 13.0 15.6 0.00 0.13 0.13 87 1006.7
20260505171101 53 109 13.0 15.6 0.00 0.13 0.13 85 1006.7
20260505165601 54 111 11.3 13.9 0.00 0.13 0.13 84 1006.7
20260505165102 54 122 10.4 13.9 0.00 0.13 0.13 84 1006.9
20260505164108 54 117 11.3 13.0 0.00 0.13 0.13 85 1006.8
20260505163601 54 118 12.2 16.5 0.00 0.13 0.13 84 1006.8
20260505162603 55 109 15.6 18.2 0.00 0.13 0.13 84 1007.0
20260505162118 55 102 15.6 18.2 0.00 0.13 0.13 83 1007.0
20260505161615 55 111 16.5 20.0 0.00 0.13 0.13 81 1006.9
20260505160602 54 138 17.4 20.9 0.01 0.13 0.13 80 1006.6
20260505153101 54 103 15.6 20.0 0.08 0.13 0.12 88 1006.5
20260505152602 54 103 13.0 19.1 0.08 0.13 0.12 88 1006.3
20260505152104 54 104 11.3 13.9 0.08 0.13 0.12 88 1006.6
20260505151601 54 104 10.4 13.9 0.08 0.13 0.12 89 1006.6
20260505151101 54 128 9.6 13.0 0.07 0.13 0.12 88 1006.7
20260505140603 55 355 4.3 10.4 0.05 0.06 0.05 85 1006.3
20260505123615 59 311 4.3 8.7 0.00 0.01 0.01 70 1006.8
20260505123102 59 326 5.2 8.7 0.00 0.01 0.01 70 1006.8
20260505122607 59 315 5.2 8.7 0.00 0.01 0.01 71 1006.8
20260505122102 59 338 5.2 10.4 0.00 0.01 0.01 70 1006.8
20260505121602 59 311 5.2 10.4 0.00 0.01 0.01 71 1006.7
20260505121103 59 307 5.2 10.4 0.00 0.01 0.01 73 1006.7
20260505120619 58 305 6.1 10.4 0.00 0.01 0.01 72 1006.7
20260505115602 59 294 7.8 12.2 0.00 0.01 0.01 73 1006.7
20260505115102 59 315 7.0 12.2 0.00 0.01 0.01 72 1006.7
20260505114604 59 302 5.2 9.6 0.00 0.01 0.01 71 1006.6
20260505114103 59 321 5.2 8.7 0.00 0.01 0.01 70 1006.6
20260505113602 59 293 5.2 10.4 0.00 0.01 0.01 69 1006.7
20260505113101 59 334 5.2 10.4 0.00 0.01 0.01 69 1006.7
20260505112603 59 294 4.3 8.7 0.00 0.01 0.01 68 1006.7
20260505112103 59 301 3.5 7.8 0.00 0.01 0.01 68 1006.6
20260505111104 59 317 3.5 6.1 0.00 0.01 0.01 70 1006.6
20260505110602 58 293 3.5 7.0 0.00 0.01 0.01 71 1006.6
20260505102036 57 285 4.3 7.8 0.00 0.01 0.01 75 1006.4
20260505101535 57 309 4.3 7.8 0.00 0.01 0.01 76 1006.4
20260505100532 56 341 3.5 6.1 0.00 0.01 0.01 80 1006.3
20260505100029 55 299 3.5 6.1 0.00 0.01 0.01 80 1006.3
20260505095529 55 307 3.5 6.1 0.00 0.01 0.01 80 1006.3
20260505095031 55 355 3.5 6.1 0.00 0.01 0.01 81 1006.2
20260505094529 55 293 3.5 6.1 0.00 0.01 0.01 81 1006.2
20260505094029 55 282 2.6 4.3 0.00 0.01 0.01 81 1006.2
20260505093528 55 301 1.7 4.3 0.00 0.01 0.01 82 1006.1
20260505093031 54 37 0.9 2.6 0.00 0.01 0.01 83 1006.1
20260505092529 54 27 0.9 1.7 0.00 0.01 0.01 84 1006.0
20260505092029 53 27 0.9 1.7 0.00 0.01 0.01 85 1006.0
20260505091529 53 27 0.9 1.7 0.00 0.01 0.01 87 1006.0
20260505091030 53 108 0.9 1.7 0.00 0.01 0.01 88 1006.0
20260505085527 53 140 0.9 3.5 0.00 0.01 0.01 88 1005.7
20260505085014 53 140 1.7 3.5 0.00 0.01 0.01 89 1005.7
20260505084009 53 110 0.9 3.5 0.00 0.01 0.01 89 1005.9
20260505083504 52 110 0.9 1.7 0.00 0.01 0.01 90 1005.9
20260505083006 52 110 0.9 1.7 0.00 0.01 0.01 90 1005.7
20260505082504 52 110 0.9 1.7 0.00 0.01 0.01 89 1005.7
20260505082004 52 110 0.9 1.7 0.00 0.01 0.01 90 1005.7
20260505081505 52 110 1.7 3.5 0.00 0.01 0.01 90 1005.9
20260505080503 52 110 2.6 4.3 0.00 0.01 0.01 90 1006.1
20260505080004 52 110 2.6 4.3 0.00 0.01 0.01 91 1006.1
20260505075505 52 106 2.6 3.5 0.00 0.01 0.01 90 1006.3
20260505075004 52 95 1.7 3.5 0.00 0.01 0.01 91 1006.3
20260505074503 52 60 0.9 1.7 0.00 0.01 0.01 91 1006.3
20260505074000 52 60 0.9 2.6 0.00 0.01 0.01 91 1006.3
20260505073501 51 60 1.7 2.6 0.00 0.01 0.01 91 1006.4
20260505073002 51 60 1.7 2.6 0.00 0.01 0.01 92 1006.5
20260505072501 51 301 1.7 2.6 0.00 0.01 0.01 92 1006.7
20260505072001 51 301 1.7 2.6 0.00 0.01 0.01 92 1006.7
20260505071516 51 321 1.7 2.6 0.00 0.01 0.01 92 1006.8
20260505070503 51 281 1.7 2.6 0.00 0.01 0.01 92 1006.7
20260505065509 50 266 0.9 1.7 0.01 0.01 0.01 92 1006.7
20260505065018 50 324 0.9 2.6 0.01 0.01 0.01 92 1006.7
20260505064509 50 324 1.7 2.6 0.01 0.01 0.01 92 1006.8
20260505064001 50 307 1.7 3.5 0.01 0.01 0.01 92 1007.0
20260505063018 50 296 2.6 3.5 0.01 0.01 0.01 92 1007.1
20260505062501 50 312 2.6 3.5 0.01 0.01 0.01 92 1007.0
20260505061459 50 305 1.7 3.5 0.01 0.01 0.01 92 1007.1
20260505061002 50 262 1.7 2.6 0.01 0.01 0.01 92 1007.1
20260505060455 50 290 1.7 2.6 0.01 0.01 0.01 92 1007.1
20260505055946 50 293 1.7 2.6 0.01 0.01 0.00 92 1007.1
20260505055447 50 280 1.7 3.5 0.00 0.00 0.00 92 1007.1
20260505054948 50 271 1.7 3.5 0.00 0.00 0.00 92 1007.1
20260505054445 50 278 1.7 2.6 0.00 0.00 0.00 92 1007.1
20260505053936 50 288 1.7 2.6 0.00 0.00 0.00 92 1007.1
20260505052933 50 287 1.7 3.5 0.00 0.00 0.00 91 1007.1
20260505052431 50 282 1.7 3.5 0.00 0.00 0.00 91 1007.0
20260505051929 50 288 1.7 2.6 0.00 0.00 0.00 91 1007.0
20260505051429 50 271 1.7 3.5 0.00 0.00 0.00 90 1007.0
20260505050930 50 280 2.6 3.5 0.00 0.00 0.00 90 1007.0
20260505050429 50 261 1.7 3.5 0.00 0.00 0.00 90 1007.0
20260505041422 49 288 1.7 2.6 0.00 0.00 0.00 90 1007.0
20260505040922 49 290 1.7 2.6 0.00 0.00 0.00 90 1006.7
20260505040410 49 284 1.7 3.5 0.00 0.00 0.00 90 1006.9
20260505035905 49 269 1.7 3.5 0.00 0.00 0.00 90 1006.9
20260505034858 49 261 2.6 4.3 0.00 0.00 0.00 90 1006.9
20260505034350 49 294 2.6 3.5 0.00 0.00 0.00 90 1006.8
20260505033842 49 296 2.6 4.3 0.00 0.00 0.00 90 1006.9
20260505033342 49 297 2.6 4.3 0.00 0.00 0.00 90 1007.0
20260505031848 49 291 2.6 3.5 0.00 0.00 0.00 90 1006.9
20260505031332 49 280 2.6 3.5 0.00 0.00 0.00 90 1006.9
20260505030832 49 257 2.6 3.5 0.00 0.00 0.00 89 1006.9
20260505030331 49 273 2.6 4.3 0.00 0.00 0.00 89 1006.9
20260505025329 50 251 2.6 4.3 0.00 0.00 0.00 89 1006.9
20260505024830 50 297 2.6 4.3 0.00 0.00 0.00 90 1007.0
20260505024329 50 264 2.6 4.3 0.00 0.00 0.00 90 1007.1
20260505023328 50 290 2.6 4.3 0.00 0.00 0.00 90 1007.1
20260505022831 50 274 2.6 4.3 0.00 0.00 0.00 90 1007.3
20260505022331 50 290 1.7 4.3 0.00 0.00 0.00 90 1007.3
20260505021829 50 306 1.7 3.5 0.00 0.00 0.00 90 1007.3
20260505020834 51 286 0.9 3.5 0.00 0.00 0.00 91 1007.3
20260505020325 51 249 0.9 1.7 0.00 0.00 0.00 91 1007.4
20260505015822 51 249 0.9 1.7 0.00 0.00 0.00 91 1007.4
20260505015319 51 249 0.0 0.9 0.00 0.00 0.00 91 1007.4
20260505014817 51 249 0.0 0.9 0.00 0.00 0.00 91 1007.5
20260505014310 50 249 0.0 0.9 0.00 0.00 0.00 91 1007.5
20260505013805 50 249 0.9 1.7 0.00 0.00 0.00 91 1007.5
20260505012304 50 249 1.7 3.5 0.00 0.00 0.00 91 1007.4
20260505011801 50 242 1.7 3.5 0.00 0.00 0.00 91 1007.5
20260505011304 50 197 0.9 3.5 0.00 0.00 0.00 91 1007.6
20260505010800 50 45 0.9 2.6 0.00 0.00 0.00 91 1007.6
20260505010301 50 45 1.7 2.6 0.00 0.00 0.00 90 1007.6
20260505005817 50 42 0.9 2.6 0.00 0.00 0.00 90 1007.8
20260505005303 50 329 0.9 1.7 0.00 0.00 0.00 90 1008.0
20260505004300 50 329 0.9 1.7 0.00 0.00 0.00 90 1008.1
20260505003801 50 329 0.9 1.7 0.00 0.00 0.00 90 1008.1
20260505003304 50 11 0.9 2.6 0.00 0.00 0.00 90 1008.1
20260505002816 50 11 1.7 2.6 0.00 0.00 0.00 90 1008.2
20260505002303 50 345 0.9 2.6 0.00 0.00 0.00 90 1008.3
20260505001802 50 276 0.9 1.7 0.00 0.00 0.00 90 1008.3
20260505001302 50 276 0.9 1.7 0.00 0.00 0.00 90 1008.6
20260505000801 50 276 0.9 1.7 0.00 0.00 0.00 90 1008.6
20260505000302 50 276 1.7 2.6 0.00 0.00 0.00 90 1008.6
20260504235801 50 276 0.9 2.6 0.00 0.00 0.00 90 1008.6
20260504234800 50 282 1.7 2.6 0.00 0.00 0.00 90 1008.8
20260504233747 50 278 1.7 3.5 0.00 0.00 0.00 90 1008.8
20260504233237 50 263 1.7 2.6 0.00 0.00 0.00 90 1008.9
20260504231244 51 290 1.7 3.5 0.00 0.00 0.00 89 1009.1
20260504230730 51 273 1.7 3.5 0.00 0.00 0.00 89 1009.2
20260504225730 51 259 2.6 3.5 0.00 0.00 0.00 89 1009.3
20260504225230 51 271 1.7 3.5 0.00 0.00 0.00 89 1009.4
20260504224729 52 261 1.7 3.5 0.00 0.00 0.00 89 1009.5
20260504224231 52 305 0.9 2.6 0.00 0.00 0.00 88 1009.5
20260504223744 52 305 0.9 2.6 0.00 0.00 0.00 88 1009.4
20260504223229 52 305 0.9 2.6 0.00 0.00 0.00 88 1009.5
20260504222729 52 305 0.9 2.6 0.00 0.00 0.00 88 1009.5
20260504222230 52 276 0.9 1.7 0.00 0.00 0.00 88 1009.5
20260504221730 52 276 0.9 1.7 0.00 0.00 0.00 88 1009.8
20260504221231 53 276 0.9 1.7 0.00 0.00 0.00 88 1009.7
20260504220729 53 276 0.9 1.7 0.00 0.00 0.00 88 1009.7
20260504220516 53 276 0.9 1.7 0.00 0.00 0.00 87 1009.5
20260504215732 53 276 0.9 1.7 0.00 0.00 0.00 87 1009.7
20260504215230 53 276 0.9 2.6 0.00 0.00 0.00 87 1009.8
20260504214230 53 271 0.9 2.6 0.00 0.00 0.00 87 1010.0
20260504213728 53 271 0.9 2.6 0.00 0.00 0.00 86 1010.0
20260504213228 53 271 1.7 2.6 0.00 0.00 0.00 86 1010.1
20260504212709 53 266 1.7 2.6 0.00 0.00 0.00 86 1010.0
20260504212210 53 298 0.9 2.6 0.00 0.00 0.00 85 1010.1
20260504211706 53 298 0.9 2.6 0.00 0.00 0.00 85 1010.2
20260504211204 54 286 0.9 2.6 0.00 0.00 0.00 85 1010.2
20260504210701 54 286 1.7 3.5 0.00 0.00 0.00 84 1010.2
20260504210202 54 276 1.7 3.5 0.00 0.00 0.00 84 1010.3
20260504205702 54 278 1.7 3.5 0.00 0.00 0.00 84 1010.3
20260504205201 54 285 0.9 2.6 0.00 0.00 0.00 84 1010.4
20260504204701 54 253 1.7 3.5 0.00 0.00 0.00 84 1010.5
20260504203703 55 244 1.7 4.3 0.00 0.00 0.00 84 1010.7
20260504203201 55 283 2.6 4.3 0.00 0.00 0.00 84 1010.6
20260504202701 55 292 2.6 4.3 0.00 0.00 0.00 84 1010.5
20260504202216 55 276 2.6 4.3 0.00 0.00 0.00 84 1010.8
20260504201717 55 261 2.6 4.3 0.00 0.00 0.00 84 1010.8
20260504201200 55 292 2.6 4.3 0.00 0.00 0.00 84 1010.8
20260504200702 55 288 2.6 5.2 0.00 0.00 0.00 84 1010.8
20260504200203 55 282 3.5 5.2 0.00 0.00 0.00 84 1010.7
20260504195704 55 279 3.5 5.2 0.00 0.00 0.00 83 1010.6
20260504195201 55 270 4.3 5.2 0.00 0.00 0.00 83 1010.5
20260504194701 55 276 4.3 6.1 0.00 0.00 0.00 83 1010.6
20260504194200 55 278 4.3 7.0 0.00 0.00 0.00 83 1010.6